Regional Weather Roundup
Issued by NWS Northern Indiana

Home | Current Version | Previous Version | Text Only | Print | Product List | Glossary Off
Versions: 1 2 3 4 5 6 7 8 9 10 11 12 13 14 15 16 17 18 19 20 21 22 23 24 25 26 27 28 29 30 31 32 33 34 35 36 37 38 39 40 41 42 43 44 45 46 47 48 49 50

000
ASUS43 KIWX 040900
RWRIWX

KIWX WEATHER ROUNDUP
NATIONAL WEATHER SERVICE NORTHERN INDIANA
500 AM EDT FRI SEP 04 2015

NOTE: "FAIR" INDICATES FEW OR NO CLOUDS BELOW 12,000 FEET WITH NO
SIGNIFICANT WEATHER AND/OR OBSTRUCTIONS TO VISIBILITY.

* THESE STATIONS ARE NOT UNDER NWS QUALITY CONTROL. THEY ALSO MAY NOT
  REPORT WEATHER SUCH AS PRECIPITATION OR FOG.

INZ001>027-041000-
NORTHERN INDIANA

CITY           SKY/WX    TMP DP  RH WIND       PRES   REMARKS
SOUTH BEND     CLEAR     67  65  93 CALM      29.97S
GOSHEN         PTCLDY    68  66  93 W5        29.96S FOG
ANGOLA*        MOCLDY    70  59  68 CALM      29.96S VSB 1
FORT WAYNE     MOCLDY    69  66  90 SW6       29.96S
PERU/GRISSOM   CLEAR     69  66  92 SW5       29.96R

$$
INZ028>050-041000-
CENTRAL INDIANA

CITY           SKY/WX    TMP DP  RH WIND       PRES   REMARKS
LAFAYETTE      CLEAR     67  65  93 CALM      29.97R FOG
KOKOMO*        CLEAR     68  63  83 SW3       29.97S
MUNCIE*        CLEAR     72  66  81 SW6       29.98S
INDIANAPOLIS   CLEAR     72  66  81 SW6       29.98R

$$
MIZ043>046-050>051-056>058-064>065-071>073-077>080-041000-
SOUTHWEST LOWER MICHIGAN

CITY           SKY/WX    TMP DP  RH WIND       PRES   REMARKS
BATTLE CREEK   CLOUDY    68  66  93 W9        29.97R FOG
BENTON HARBOR  CLOUDY    69  66  90 N5        29.97R
COLDWATER*     CLOUDY    69  69 100 CALM      29.96S FOG
HILLSDALE*     CLOUDY    69  69 100 S3        29.97S FOG
HOLLAND        CLOUDY    70  67  90 W3        29.96S
GRAND RAPIDS   CLOUDY    69  68  96 W5        29.96R FOG
KALAMAZOO      CLOUDY    68  65  90 NW7       29.97R
STURGIS*       PTCLDY    66  66 100 CALM      29.96R FOG
THREE RIVERS*  CLOUDY    68  67  96 CALM      29.96R FOG

$$
OHZ001>008-015>018-024>025-041000-
NORTHWEST OHIO

CITY           SKY/WX    TMP DP  RH WIND       PRES   REMARKS
DEFIANCE       PTCLDY    72  68  87 CALM      29.95S FOG
FINDLAY        MOCLDY    70  65  84 SE13      29.98R
TOLEDO EXPRESS CLOUDY    68  64  87 SE6       29.96S
TOLEDO METCALF CLOUDY    69  64  84 S13       29.97S
LIMA           CLOUDY    72  67  84 S3        29.98R

$$
AND FOR LAKE MICHIGAN COASTAL AND OPEN LAKE BUOY OBSERVATIONS

STATION/POSITION TEMP    WIND        PRES    VSBY  WAVE
                 AIR SEA DIR/SP/G                  HT/PER
                 (F)     (DEG/KT/KT) (MB)    (MI)  (FT/S)
CALUMET HARBOR    70     340/  2/  3   N/A
MICHIGAN CITY     71     350/  7/  8   N/A
BURNS HARBOR      72      10/  5/  7 1014.9S
SAINT JOSEPH      71     310/  5/  6 1015.2S
SOUTH LAKE BUOY   68 71  330/ 10/ 14 1014.2R
4 MI NW BRIDGMAN  70 73   30/  6/  8   N/A           1/ 4
MICHIGAN CITY     72 73   20/  6/ 10   N/A           2/ 4

$$
&&



USA.gov is the U.S. government's official web portal to all federal, state and local government web resources and services.